GW1111 Weather Reports


Display with metric or nautical units.
time (UTC)temp
F
wind
direction
speed
MPH
gust
MPH
rain 1hr
in
rain 24hr
in
rain mn
in
humidity
%
barometer
mb
20260506123621 53 271 0.0 0.0 0.00 0.00 0.00 73 1012.0
20260506122622 53 293 0.0 0.0 0.00 0.00 0.00 73 1012.0
20260506121623 54 315 0.0 0.0 0.00 0.00 0.00 74 1012.0
20260506120624 53 311 0.0 0.0 0.00 0.00 0.00 73 1012.0
20260506115619 55 316 0.0 0.0 0.00 0.00 0.00 71 1011.8
20260506114617 54 74 0.0 0.0 0.00 0.00 0.00 72 1011.9
20260506113620 54 265 0.0 0.0 0.00 0.00 0.00 75 1012.0
20260506112620 54 300 0.0 0.0 0.00 0.00 0.00 74 1011.9
20260506111618 54 339 0.0 0.0 0.00 0.00 0.00 74 1012.0
20260506110617 54 26 0.0 0.0 0.00 0.00 0.00 76 1011.9
20260506105617 54 294 0.0 0.0 0.00 0.00 0.00 75 1011.9
20260506104613 53 292 0.0 0.0 0.00 0.00 0.00 75 1011.9
20260506103613 53 20 0.0 0.0 0.00 0.00 0.00 74 1012.0
20260506102613 53 309 0.0 0.0 0.00 0.00 0.00 75 1011.9
20260506102059 53 330 0.0 0.0 0.00 0.00 0.00 77 1011.8
20260506101535 53 323 0.0 0.0 0.00 0.00 0.00 76 1011.8
20260506095618 53 274 0.0 0.0 0.00 0.00 0.00 77 1011.8
20260506094616 53 269 0.0 0.0 0.00 0.00 0.00 77 1011.6
20260506093614 53 197 0.0 0.0 0.00 0.00 0.00 75 1011.7
20260506092613 53 66 0.0 0.0 0.00 0.00 0.00 74 1011.5
20260506092533 53 296 0.0 0.0 0.00 0.00 0.00 75 1011.5
20260506090612 53 319 0.0 0.0 0.00 0.00 0.00 78 1011.4
20260506085613 53 290 0.0 0.0 0.00 0.00 0.00 77 1011.2
20260506084615 53 355 0.0 0.0 0.00 0.00 0.00 74 1011.1
20260506083616 54 283 0.0 0.0 0.00 0.00 0.00 76 1011.1
20260506082615 53 122 0.0 0.0 0.00 0.00 0.00 73 1011.0
20260506081614 54 355 0.0 0.0 0.00 0.00 0.00 76 1010.8
20260506080614 53 118 0.0 0.0 0.00 0.00 0.00 75 1011.0
20260506072611 53 90 0.0 0.0 0.00 0.00 0.00 79 1010.8
20260506071612 52 74 0.0 0.0 0.00 0.00 0.00 79 1010.7
20260506070611 51 227 0.0 0.0 0.00 0.00 0.00 80 1010.6
20260506061610 50 338 0.0 0.0 0.00 0.00 0.00 85 1010.5
20260506060611 49 297 0.0 0.0 0.00 0.00 0.00 86 1010.5
20260506050607 47 287 0.0 0.0 0.00 0.00 0.00 89 1010.3
20260506044602 47 279 0.0 0.0 0.00 0.00 0.00 88 1010.1
20260506043602 47 319 0.0 0.0 0.00 0.00 0.00 88 1010.1
20260506042602 47 325 0.0 0.0 0.00 0.00 0.00 88 1010.0
20260506042045 47 290 0.0 0.0 0.00 0.00 0.00 87 1009.9
20260506040603 48 304 0.0 0.0 0.00 0.00 0.00 87 1010.0
20260506035604 48 22 0.0 0.0 0.00 0.00 0.00 87 1010.0
20260506034604 48 276 0.0 0.0 0.00 0.00 0.00 87 1010.0
20260506034045 48 0 0.0 0.0 0.00 0.00 0.00 87 1010.0
20260506032600 48 117 0.0 0.0 0.00 0.00 0.00 86 1010.0
20260506031601 48 291 0.0 0.0 0.00 0.00 0.00 86 1010.0
20260506030602 48 96 0.0 0.0 0.00 0.00 0.00 85 1010.0
20260506025600 48 331 0.0 0.0 0.00 0.00 0.00 85 1010.0
20260506024602 48 314 0.0 0.0 0.00 0.00 0.00 85 1010.0
20260506023601 48 295 0.0 0.0 0.00 0.00 0.00 85 1010.0
20260506022601 48 16 0.0 0.0 0.00 0.00 0.00 85 1009.9
20260506022038 48 304 0.0 0.0 0.00 0.00 0.00 85 1009.9
20260506020601 48 207 0.0 0.0 0.00 0.00 0.00 85 1009.9
20260506015601 49 169 0.0 0.0 0.00 0.00 0.00 84 1009.8
20260506014602 49 249 0.0 0.0 0.00 0.00 0.00 84 1010.0
20260506013602 49 236 0.0 0.0 0.00 0.00 0.00 84 1010.0
20260506012600 49 0 0.0 0.0 0.00 0.00 0.00 83 1010.0
20260506011605 49 238 0.0 0.0 0.00 0.00 0.00 83 1009.9
20260506010603 49 32 0.0 0.0 0.00 0.00 0.00 83 1010.0
20260506005600 49 279 0.0 0.0 0.00 0.00 0.00 83 1010.1
20260506004601 49 311 0.0 0.0 0.00 0.00 0.00 83 1010.0
20260506003600 49 316 0.0 0.0 0.00 0.00 0.00 83 1010.1
20260506002602 49 320 0.0 0.0 0.00 0.00 0.00 83 1010.1
20260506001605 49 309 0.0 0.0 0.00 0.00 0.00 83 1010.2
20260506000559 49 78 0.0 0.0 0.00 0.00 0.00 83 1010.2
20260505235600 49 334 0.0 0.0 0.00 0.00 0.00 82 1010.2
20260505234559 49 336 0.0 0.0 0.00 0.00 0.00 82 1010.1
20260505234044 49 344 0.0 0.0 0.00 0.00 0.00 82 1010.2
20260505232558 49 310 0.0 0.0 0.00 0.00 0.00 81 1010.2
20260505231558 49 115 0.0 0.0 0.00 0.00 0.00 81 1010.3
20260505230557 50 183 0.0 0.0 0.00 0.00 0.00 81 1010.2
20260505230537 50 329 0.0 0.0 0.00 0.00 0.00 81 1010.3
20260505224556 50 285 0.0 0.0 0.00 0.00 0.00 81 1010.2
20260505224039 50 287 0.0 0.0 0.00 0.00 0.00 81 1010.2
20260505222557 50 269 0.0 0.0 0.00 0.00 0.00 81 1010.1
20260505221558 50 303 0.0 0.0 0.00 0.00 0.00 81 1010.2
20260505220558 50 333 0.0 0.0 0.00 0.00 0.00 81 1010.2
20260505215554 50 266 0.0 0.0 0.00 0.00 0.00 81 1010.2
20260505214554 51 324 0.0 0.0 0.00 0.00 0.00 80 1010.1
20260505213552 51 230 0.0 0.0 0.00 0.00 0.00 81 1010.2
20260505212550 51 348 0.0 0.0 0.00 0.00 0.00 81 1010.2
20260505211550 51 220 0.0 0.0 0.00 0.00 0.00 82 1010.2
20260505210550 51 311 0.0 0.0 0.00 0.00 0.00 83 1010.0
20260505205550 51 46 0.0 0.0 0.00 0.00 0.00 84 1010.2
20260505205023 51 234 0.0 0.0 0.00 0.00 0.00 84 1010.2
20260505203548 51 314 0.0 0.0 0.00 0.00 0.00 84 1010.1
20260505202551 51 339 0.0 0.0 0.00 0.00 0.00 85 1010.1
20260505201549 51 339 0.0 0.0 0.00 0.00 0.00 85 1010.0
20260505200554 52 355 0.0 0.0 0.00 0.00 0.00 85 1010.0
20260505200028 52 304 0.0 0.0 0.00 0.00 0.00 85 1009.8
20260505194548 52 309 0.0 0.0 0.00 0.00 0.00 85 1009.7
20260505193548 52 305 0.0 0.0 0.00 0.00 0.00 85 1009.5
20260505192546 52 355 0.0 0.0 0.00 0.00 0.00 84 1009.5
20260505191546 52 9 0.0 0.0 0.00 0.00 0.00 84 1009.4
20260505190545 52 268 0.0 0.0 0.00 0.00 0.00 83 1009.4
20260505185548 52 270 0.0 0.0 0.00 0.00 0.00 82 1009.3
20260505184545 53 63 0.0 0.0 0.00 0.00 0.00 82 1009.2
20260505183548 53 265 0.0 0.0 0.00 0.00 0.00 82 1009.2
20260505182534 53 210 0.0 0.0 0.00 0.00 0.00 82 1009.2
20260505181534 53 273 0.0 0.0 0.00 0.00 0.00 82 1009.1
20260505180533 53 325 0.0 0.0 0.00 0.00 0.00 81 1009.2
20260505180022 54 73 0.0 0.0 0.00 0.00 0.00 81 1009.2
20260505175008 54 326 0.0 0.0 0.00 0.00 0.00 80 1009.1
20260505173530 54 355 0.0 0.0 0.00 0.00 0.00 80 1009.1
20260505172531 55 19 0.0 0.0 0.00 0.00 0.00 80 1009.3
20260505171529 55 0 0.0 0.0 0.00 0.00 0.00 80 1009.1
20260505170529 56 272 0.0 0.0 0.00 0.00 0.00 81 1009.2
20260505165529 56 267 0.0 1.0 0.00 0.00 0.00 80 1009.1
20260505164529 56 284 0.0 0.0 0.00 0.00 0.00 79 1009.1
20260505163528 56 95 0.0 0.0 0.00 0.00 0.00 79 1009.0
20260505162529 57 355 0.0 1.0 0.00 0.00 0.00 80 1009.0
20260505161532 56 284 0.0 1.0 0.00 0.00 0.00 80 1008.9
20260505160530 57 180 0.0 0.0 0.00 0.00 0.00 80 1008.9
20260505153019 58 294 0.0 0.0 0.00 0.00 0.00 80 1009.2
20260505151532 58 293 0.0 0.0 0.00 0.00 0.00 80 1009.2
20260505150527 57 229 0.0 0.0 0.00 0.00 0.00 81 1009.3
20260505140527 56 222 0.0 0.0 0.00 0.01 0.00 82 1009.6
20260505125012 57 299 0.0 0.0 0.00 0.01 0.00 81 1009.9